FW6148 Weather Reports


Display with metric or nautical units.
time (UTC)temp
F
wind
direction
speed
MPH
gust
MPH
rain 1hr
in
rain 24hr
in
rain mn
in
humidity
%
barometer
mb
20260507193042 51 34 5.0 14.0 0.03 0.17 0.17 82 1012.2
20260507192528 50 28 8.0 14.0 0.03 0.17 0.17 81 1012.2
20260507192027 50 71 8.0 14.0 0.03 0.17 0.17 81 1012.2
20260507191538 50 53 8.0 14.0 0.02 0.16 0.16 81 1012.2
20260507191027 50 63 8.0 17.0 0.02 0.16 0.16 83 1012.1
20260507190527 50 54 10.0 17.0 0.02 0.16 0.16 83 1012.1
20260507190051 50 46 10.0 17.0 0.02 0.16 0.16 83 1012.2
20260507185528 50 57 10.0 19.0 0.01 0.15 0.15 82 1012.1
20260507185027 50 46 12.0 22.0 0.01 0.15 0.15 80 1012.1
20260507184540 51 22 12.0 22.0 0.01 0.14 0.14 79 1012.1
20260507184027 53 85 9.0 22.0 0.01 0.14 0.14 78 1012.1
20260507183526 54 70 10.0 17.0 0.01 0.14 0.14 77 1011.9
20260507183044 54 105 7.0 13.0 0.01 0.14 0.14 80 1011.9
20260507182527 54 76 6.0 13.0 0.01 0.14 0.14 81 1011.9
20260507182027 53 56 8.0 13.0 0.02 0.14 0.14 80 1011.8
20260507181537 52 29 4.0 11.0 0.03 0.14 0.14 82 1011.8
20260507181030 51 41 6.0 13.0 0.03 0.14 0.14 83 1011.9
20260507180527 50 57 7.0 13.0 0.03 0.14 0.14 84 1012.0
20260507180039 50 72 8.0 14.0 0.04 0.14 0.14 84 1012.0
20260507175530 50 25 9.0 15.0 0.05 0.14 0.14 84 1012.1
20260507175029 49 74 8.0 16.0 0.06 0.14 0.14 83 1012.0
20260507174554 49 58 9.0 16.0 0.06 0.13 0.13 83 1011.8
20260507174028 49 68 7.0 13.0 0.07 0.13 0.13 84 1011.7
20260507173527 49 57 8.0 13.0 0.08 0.13 0.13 84 1011.6
20260507173103 49 62 6.0 14.0 0.08 0.13 0.13 86 1011.7
20260507172528 49 35 8.0 16.0 0.09 0.13 0.13 85 1011.8
20260507172028 49 74 9.0 16.0 0.08 0.12 0.12 85 1011.8
20260507171546 49 66 6.0 11.0 0.08 0.11 0.11 86 1011.8
20260507171028 48 53 3.0 13.0 0.09 0.11 0.11 86 1011.7
20260507170528 48 53 7.0 14.0 0.09 0.11 0.11 85 1011.7
20260507170041 48 51 8.0 14.0 0.08 0.10 0.10 83 1012.0
20260507165527 48 52 10.0 15.0 0.08 0.09 0.09 84 1012.0
20260507165027 48 64 7.0 23.0 0.07 0.08 0.08 85 1012.0
20260507164547 48 65 10.0 23.0 0.07 0.07 0.07 84 1011.9
20260507164027 49 48 13.0 23.0 0.06 0.06 0.06 83 1011.8
20260507163528 49 54 12.0 19.0 0.05 0.05 0.05 83 1011.8
20260507163047 49 44 11.0 21.0 0.05 0.05 0.05 83 1011.8
20260507162527 49 72 13.0 22.0 0.04 0.04 0.04 83 1011.8
20260507162027 50 49 9.0 22.0 0.04 0.04 0.04 83 1011.6
20260507161556 49 49 7.0 17.0 0.03 0.03 0.03 84 1011.4
20260507161028 49 82 5.0 9.0 0.02 0.02 0.02 84 1011.4
20260507160528 49 108 4.0 12.0 0.02 0.02 0.02 84 1011.3
20260507160042 49 82 6.0 12.0 0.02 0.02 0.02 83 1011.3
20260507155527 50 97 4.0 14.0 0.01 0.01 0.01 81 1011.4
20260507155028 51 74 6.0 14.0 0.01 0.01 0.01 77 1011.4
20260507154542 52 76 7.0 13.0 0.00 0.00 0.00 70 1011.3
20260507154027 54 74 2.0 6.0 0.00 0.00 0.00 66 1011.1
20260507153527 54 123 2.0 6.0 0.00 0.00 0.00 63 1010.6
20260507153041 55 145 3.0 6.0 0.00 0.00 0.00 62 1010.4
20260507152530 55 157 2.0 7.0 0.00 0.00 0.00 62 1010.3
20260507152028 55 128 3.0 7.0 0.00 0.00 0.00 62 1010.6
20260507151538 55 138 4.0 9.0 0.00 0.00 0.00 59 1010.4
20260507151028 55 130 4.0 9.0 0.00 0.00 0.00 60 1010.6
20260507150528 56 107 4.0 9.0 0.00 0.00 0.00 58 1010.5
20260507150037 57 97 4.0 10.0 0.00 0.00 0.00 57 1010.4
20260507145527 57 360 5.0 10.0 0.00 0.00 0.00 56 1010.2
20260507145027 57 134 4.0 8.0 0.00 0.00 0.00 53 1010.1
20260507144539 57 109 2.0 7.0 0.00 0.00 0.00 54 1009.8
20260507144028 57 85 2.0 5.0 0.00 0.00 0.00 54 1009.9
20260507143525 56 360 2.0 8.0 0.00 0.00 0.00 53 1009.9
20260507143040 56 44 1.0 8.0 0.00 0.00 0.00 53 1009.9
20260507142528 56 59 2.0 5.0 0.00 0.00 0.00 54 1009.8
20260507142025 55 360 0.0 4.0 0.00 0.00 0.00 52 1009.8
20260507141545 54 0 0.0 4.0 0.00 0.00 0.00 53 1010.0
20260507141028 54 360 0.0 3.0 0.00 0.00 0.00 54 1009.8
20260507140528 53 233 2.0 3.0 0.00 0.00 0.00 54 1010.0
20260507140039 52 0 1.0 3.0 0.00 0.00 0.00 60 1010.0
20260507135524 51 233 1.0 3.0 0.00 0.00 0.00 58 1010.0
20260507135027 51 233 1.0 3.0 0.00 0.00 0.00 58 1010.1
20260507134541 50 233 1.0 3.0 0.00 0.00 0.00 60 1010.0
20260507134024 48 0 0.0 0.0 0.00 0.00 0.00 62 1010.0
20260507133526 47 0 0.0 0.0 0.00 0.00 0.00 63 1010.2
20260507133039 47 0 0.0 3.0 0.00 0.00 0.00 65 1010.1
20260507132529 47 0 1.0 4.0 0.00 0.00 0.00 62 1010.1
20260507132027 46 0 0.0 4.0 0.00 0.00 0.00 62 1010.3
20260507131539 46 233 2.0 4.0 0.00 0.00 0.00 63 1010.1
20260507131030 45 360 1.0 3.0 0.00 0.00 0.00 63 1010.1
20260507130526 44 0 0.0 0.0 0.00 0.00 0.00 66 1010.1
20260507130039 43 0 0.0 2.0 0.00 0.00 0.00 67 1010.1
20260507125527 43 0 0.0 2.0 0.00 0.00 0.00 70 1010.0
20260507125027 42 242 0.0 2.0 0.00 0.00 0.00 67 1010.0
20260507124537 42 360 0.0 2.0 0.00 0.00 0.00 69 1009.8
20260507124024 41 0 0.0 4.0 0.00 0.00 0.00 68 1009.7
20260507123528 41 0 0.0 4.0 0.00 0.00 0.00 67 1009.7
20260507123045 40 242 2.0 4.0 0.00 0.00 0.00 70 1009.6
20260507122528 40 360 2.0 4.0 0.00 0.00 0.00 67 1009.5
20260507122027 39 360 0.0 4.0 0.00 0.00 0.00 68 1009.5
20260507121542 39 0 0.0 3.0 0.00 0.00 0.00 70 1009.5
20260507121028 38 0 0.0 4.0 0.00 0.00 0.00 71 1009.5
20260507120523 38 0 1.0 4.0 0.00 0.00 0.00 70 1009.5
20260507120044 38 0 0.0 3.0 0.00 0.00 0.00 71 1009.6
20260507115528 39 360 1.0 3.0 0.00 0.00 0.00 69 1009.5
20260507115027 39 242 1.0 3.0 0.00 0.00 0.00 70 1009.6
20260507114542 39 242 2.0 3.0 0.00 0.00 0.00 67 1009.7
20260507114027 39 360 1.0 3.0 0.00 0.00 0.00 69 1009.7
20260507113528 39 241 2.0 3.0 0.00 0.00 0.00 69 1009.6
20260507113043 38 241 2.0 3.0 0.00 0.00 0.00 70 1009.5
20260507112525 38 259 0.0 2.0 0.00 0.00 0.00 75 1009.6
20260507112025 37 0 0.0 2.0 0.00 0.00 0.00 70 1009.7
20260507111543 37 0 0.0 2.0 0.00 0.00 0.00 74 1009.6
20260507111024 37 259 0.0 3.0 0.00 0.00 0.00 74 1009.5
20260507110528 37 273 1.0 3.0 0.00 0.00 0.00 74 1009.4
20260507110042 38 273 1.0 3.0 0.00 0.00 0.00 71 1009.4
20260507105524 37 0 1.0 3.0 0.00 0.00 0.00 69 1009.5
20260507105024 37 23 0.0 2.0 0.00 0.00 0.00 70 1009.5
20260507104538 37 0 0.0 2.0 0.00 0.00 0.00 70 1009.5
20260507104028 37 0 0.0 2.0 0.00 0.00 0.00 70 1009.4
20260507103528 37 0 1.0 3.0 0.00 0.00 0.00 71 1009.2
20260507103038 37 0 0.0 3.0 0.00 0.00 0.00 70 1009.3
20260507102524 37 0 0.0 3.0 0.00 0.00 0.00 70 1009.3
20260507102025 37 0 0.0 0.0 0.00 0.00 0.00 71 1009.4
20260507101545 37 0 0.0 0.0 0.00 0.00 0.00 68 1009.3
20260507101026 37 0 0.0 0.0 0.00 0.00 0.00 71 1009.2
20260507100527 37 0 0.0 0.0 0.00 0.00 0.00 67 1009.2
20260507100043 37 0 0.0 5.0 0.00 0.00 0.00 68 1009.2
20260507095525 37 0 1.0 5.0 0.00 0.00 0.00 67 1009.1
20260507095024 36 266 1.0 5.0 0.00 0.00 0.00 66 1009.0
20260507094539 36 234 1.0 4.0 0.00 0.00 0.00 68 1009.0
20260507094024 35 234 1.0 3.0 0.00 0.00 0.00 68 1009.0
20260507093531 34 0 0.0 1.0 0.00 0.00 0.00 67 1009.0
20260507093038 35 0 0.0 2.0 0.00 0.00 0.00 69 1009.0
20260507092526 35 0 0.0 2.0 0.00 0.00 0.00 69 1008.7
20260507092030 35 234 0.0 2.0 0.00 0.00 0.00 69 1008.6
20260507091547 34 234 0.0 2.0 0.00 0.00 0.00 67 1008.5
20260507091025 33 234 0.0 2.0 0.00 0.00 0.00 69 1008.4
20260507090526 33 0 0.0 2.0 0.00 0.00 0.00 70 1008.3
20260507090047 33 0 0.0 2.0 0.00 0.00 0.00 70 1008.3
20260507085525 32 0 0.0 3.0 0.00 0.00 0.00 70 1008.3
20260507085028 33 0 1.0 3.0 0.00 0.00 0.00 69 1008.3
20260507084541 33 234 0.0 2.0 0.00 0.00 0.00 69 1008.4
20260507084025 33 0 0.0 2.0 0.00 0.00 0.00 69 1008.3
20260507083527 33 0 0.0 2.0 0.00 0.00 0.00 68 1008.3
20260507083041 33 0 0.0 2.0 0.00 0.00 0.00 67 1008.3
20260507082524 34 234 0.0 1.0 0.00 0.00 0.00 67 1008.3
20260507082024 34 0 0.0 2.0 0.00 0.00 0.00 67 1008.4
20260507081544 34 0 0.0 3.0 0.00 0.00 0.00 68 1008.4
20260507081026 34 0 1.0 3.0 0.00 0.00 0.00 67 1008.4
20260507080525 35 0 0.0 2.0 0.00 0.00 0.00 66 1008.5
20260507080039 35 0 0.0 4.0 0.00 0.00 0.00 66 1008.7
20260507075525 36 234 0.0 4.0 0.00 0.00 0.00 63 1008.7
20260507075027 35 252 2.0 4.0 0.00 0.00 0.00 64 1008.7
20260507074539 35 242 1.0 4.0 0.00 0.00 0.00 65 1008.7
20260507074028 35 242 2.0 5.0 0.00 0.00 0.00 65 1008.7
20260507073525 34 238 3.0 5.0 0.00 0.00 0.00 67 1008.6
20260507073052 33 254 2.0 4.0 0.00 0.00 0.00 67 1008.8
20260507072525 33 261 2.0 4.0 0.00 0.00 0.00 67 1008.9
20260507072027 33 0 0.0 1.0 0.00 0.00 0.00 68 1009.1
20260507071540 33 0 0.0 2.0 0.00 0.00 0.00 67 1009.2
20260507071026 34 0 0.0 2.0 0.00 0.00 0.00 66 1009.1
20260507070525 34 0 0.0 3.0 0.00 0.00 0.00 66 1008.9
20260507070042 34 0 0.0 4.0 0.00 0.00 0.00 66 1008.9
20260507065525 34 245 2.0 4.0 0.00 0.00 0.00 66 1008.8
20260507065024 34 240 2.0 4.0 0.00 0.00 0.00 66 1009.0
20260507064544 34 238 1.0 3.0 0.00 0.00 0.00 66 1009.1
20260507064027 34 0 0.0 2.0 0.00 0.00 0.00 66 1009.3
20260507063527 35 0 0.0 4.0 0.00 0.00 0.00 65 1009.4
20260507063046 36 234 1.0 4.0 0.00 0.00 0.00 62 1009.1
20260507062528 36 246 1.0 7.0 0.00 0.00 0.00 62 1009.0
20260507062025 36 251 3.0 7.0 0.00 0.00 0.00 62 1009.0
20260507061543 36 244 2.0 4.0 0.00 0.00 0.00 62 1008.9
20260507061024 36 243 2.0 4.0 0.00 0.00 0.00 62 1008.9
20260507060527 36 250 2.0 4.0 0.00 0.00 0.00 62 1008.9
20260507060041 36 250 2.0 4.0 0.00 0.00 0.00 62 1009.0
20260507055528 36 249 1.0 4.0 0.00 0.00 0.00 63 1009.0
20260507055027 35 0 2.0 4.0 0.00 0.00 0.00 63 1009.0
20260507054539 35 259 0.0 3.0 0.00 0.00 0.00 63 1008.8
20260507054025 36 0 1.0 3.0 0.00 0.00 0.00 63 1008.8
20260507053526 36 0 1.0 3.0 0.00 0.00 0.00 61 1008.9
20260507053038 36 261 2.0 4.0 0.00 0.00 0.00 61 1008.8
20260507052525 36 261 2.0 4.0 0.00 0.00 0.00 60 1008.8
20260507052029 37 0 0.0 0.0 0.00 0.00 0.00 61 1009.0
20260507051545 37 0 0.0 3.0 0.00 0.00 0.00 60 1009.3
20260507051028 38 0 0.0 4.0 0.00 0.00 0.00 58 1009.4
20260507050525 38 0 0.0 4.0 0.00 0.00 0.00 59 1009.5
20260507050044 37 360 2.0 4.0 0.00 0.00 0.00 59 1009.5
20260507045526 38 257 0.0 2.0 0.00 0.00 0.00 60 1009.6
20260507045027 38 0 0.0 6.0 0.00 0.00 0.00 60 1009.5
20260507044540 39 257 1.0 6.0 0.00 0.00 0.00 57 1009.7
20260507044025 39 257 3.0 6.0 0.00 0.00 0.00 55 1009.7
20260507043525 39 249 2.0 5.0 0.00 0.00 0.00 55 1009.6
20260507043038 40 249 2.0 5.0 0.00 0.00 0.00 55 1009.5
20260507042525 40 226 2.0 5.0 0.00 0.00 0.00 55 1009.5
20260507042025 40 248 1.0 5.0 0.00 0.00 0.00 54 1009.5
20260507041544 40 236 1.0 3.0 0.00 0.00 0.00 54 1009.5
20260507041025 41 0 0.0 5.0 0.00 0.00 0.00 55 1009.6
20260507040527 41 237 1.0 5.0 0.00 0.00 0.00 55 1009.6
20260507040037 42 227 2.0 7.0 0.00 0.00 0.00 54 1009.5
20260507035527 42 265 3.0 7.0 0.00 0.00 0.00 53 1009.5
20260507035025 42 243 4.0 7.0 0.00 0.00 0.00 54 1009.5
20260507034556 42 235 3.0 7.0 0.00 0.00 0.00 53 1009.6
20260507034024 42 248 3.0 7.0 0.00 0.00 0.00 54 1009.5
20260507033525 43 226 4.0 7.0 0.00 0.00 0.00 53 1009.5
20260507033057 43 245 4.0 7.0 0.00 0.00 0.00 53 1009.6
20260507032524 43 248 2.0 7.0 0.00 0.00 0.00 53 1009.7
20260507032024 43 236 4.0 6.0 0.00 0.00 0.00 52 1009.7
20260507031539 43 229 3.0 6.0 0.00 0.00 0.00 52 1009.6
20260507031025 43 242 3.0 5.0 0.00 0.00 0.00 52 1009.5
20260507030528 43 234 2.0 8.0 0.00 0.00 0.00 51 1009.5
20260507030039 44 240 3.0 8.0 0.00 0.00 0.00 51 1009.5
20260507025524 43 232 5.0 8.0 0.00 0.00 0.00 51 1009.6
20260507025025 43 234 5.0 7.0 0.00 0.00 0.00 52 1009.6
20260507024547 43 213 3.0 7.0 0.00 0.00 0.00 51 1009.6
20260507024025 43 234 4.0 10.0 0.00 0.00 0.00 52 1009.5
20260507023525 44 264 3.0 10.0 0.00 0.00 0.00 52 1009.6
20260507023038 44 218 3.0 7.0 0.00 0.00 0.00 51 1009.6
20260507022528 45 248 2.0 6.0 0.00 0.00 0.00 51 1009.6
20260507022030 45 242 2.0 5.0 0.00 0.00 0.00 50 1009.6
20260507021541 45 259 2.0 6.0 0.00 0.00 0.00 50 1009.7
20260507021025 46 259 2.0 6.0 0.00 0.00 0.00 50 1009.7
20260507020528 47 258 1.0 4.0 0.00 0.00 0.00 49 1009.7
20260507020039 48 258 1.0 4.0 0.00 0.00 0.00 47 1009.7
20260507015525 49 301 1.0 3.0 0.00 0.00 0.00 45 1009.8
20260507015026 50 0 0.0 3.0 0.00 0.00 0.00 44 1009.7
20260507014538 50 301 1.0 3.0 0.00 0.00 0.00 43 1009.8
20260507014025 51 307 0.0 3.0 0.00 0.00 0.00 42 1009.8
20260507013524 51 0 0.0 3.0 0.00 0.00 0.00 41 1009.8
20260507013040 52 308 1.0 4.0 0.00 0.00 0.00 43 1009.8
20260507012525 52 0 2.0 4.0 0.00 0.00 0.00 39 1009.9
20260507012025 52 310 3.0 4.0 0.00 0.00 0.00 37 1009.9
20260507011539 53 47 2.0 3.0 0.00 0.00 0.00 39 1010.0
20260507011026 54 360 2.0 3.0 0.00 0.00 0.00 37 1010.0
20260507010528 54 47 1.0 3.0 0.00 0.00 0.00 36 1010.1
20260507010043 55 360 1.0 3.0 0.00 0.00 0.00 35 1010.0
20260507005525 55 48 1.0 3.0 0.00 0.00 0.00 34 1010.1
20260507005025 56 48 1.0 3.0 0.00 0.00 0.00 35 1010.2
20260507004540 56 47 1.0 3.0 0.00 0.00 0.00 31 1010.3
20260507004025 56 48 0.0 3.0 0.00 0.00 0.00 32 1010.3
20260507003526 55 0 1.0 3.0 0.00 0.00 0.00 31 1010.4
20260507003039 55 47 0.0 4.0 0.00 0.00 0.00 31 1010.4
20260507002525 54 0 0.0 8.0 0.00 0.00 0.00 31 1010.5
20260507002025 54 47 2.0 8.0 0.00 0.00 0.00 32 1010.6
20260507001603 55 360 0.0 4.0 0.00 0.00 0.00 32 1010.6
20260507001025 55 53 2.0 4.0 0.00 0.00 0.00 31 1010.7
20260507000525 55 360 0.0 8.0 0.00 0.00 0.00 31 1010.8
20260507000038 54 56 1.0 8.0 0.00 0.00 0.00 36 1010.9
20260506235526 54 56 4.0 8.0 0.00 0.00 0.00 34 1011.0
20260506235028 53 44 4.0 8.0 0.00 0.00 0.00 34 1011.0
20260506234549 53 78 1.0 8.0 0.00 0.00 0.00 34 1011.0
20260506234025 53 63 4.0 9.0 0.00 0.00 0.00 35 1011.0
20260506233524 53 360 4.0 9.0 0.00 0.00 0.00 36 1011.0
20260506233040 54 51 5.0 9.0 0.00 0.00 0.00 37 1011.0
20260506232524 54 50 2.0 9.0 0.00 0.00 0.00 35 1011.0
20260506232029 54 51 3.0 9.0 0.00 0.00 0.00 35 1011.1
20260506231538 54 59 3.0 9.0 0.00 0.00 0.00 36 1011.1
20260506231024 55 40 4.0 9.0 0.00 0.00 0.00 34 1011.2
20260506230523 56 53 4.0 9.0 0.00 0.00 0.00 31 1011.2
20260506230039 56 360 1.0 6.0 0.00 0.00 0.00 32 1011.2
20260506225526 56 333 2.0 6.0 0.00 0.00 0.00 32 1011.4
20260506225027 56 360 2.0 8.0 0.00 0.00 0.00 34 1011.4
20260506224546 56 314 3.0 9.0 0.00 0.00 0.00 31 1011.4
20260506224026 55 28 4.0 9.0 0.00 0.00 0.00 32 1011.5
20260506223527 56 9 1.0 6.0 0.00 0.00 0.00 34 1011.6
20260506223054 56 174 3.0 6.0 0.00 0.00 0.00 31 1011.6
20260506222527 56 146 0.0 8.0 0.00 0.00 0.00 32 1011.6
20260506222026 56 140 3.0 8.0 0.00 0.00 0.00 35 1011.7
20260506221541 55 360 0.0 5.0 0.00 0.00 0.00 35 1011.7
20260506221026 54 343 1.0 10.0 0.00 0.00 0.00 36 1011.7
20260506220527 54 325 4.0 10.0 0.00 0.00 0.00 33 1011.8
20260506220051 54 55 3.0 7.0 0.00 0.00 0.00 33 1011.8
20260506215526 55 360 2.0 7.0 0.00 0.00 0.00 32 1011.9
20260506215026 54 0 2.0 6.0 0.00 0.00 0.00 38 1012.0
20260506214539 54 0 2.0 7.0 0.00 0.00 0.00 34 1012.1
20260506214030 53 360 4.0 8.0 0.00 0.00 0.00 34 1012.3
20260506213527 53 186 4.0 9.0 0.00 0.00 0.00 36 1012.3
20260506213037 53 227 1.0 9.0 0.00 0.00 0.00 35 1012.4
20260506212527 53 227 5.0 9.0 0.00 0.00 0.00 34 1012.5
20260506212027 53 258 3.0 11.0 0.00 0.00 0.00 35 1012.8
20260506211542 53 0 1.0 11.0 0.00 0.00 0.00 36 1012.9
20260506211027 52 360 1.0 6.0 0.00 0.00 0.00 38 1013.0
20260506210527 53 25 3.0 6.0 0.00 0.00 0.00 36 1013.0
20260506210037 52 360 0.0 6.0 0.00 0.00 0.00 34 1013.2
20260506205527 52 0 2.0 8.0 0.00 0.00 0.00 36 1013.3
20260506205027 52 48 4.0 8.0 0.00 0.00 0.00 36 1013.4
20260506204541 51 159 4.0 8.0 0.00 0.00 0.00 36 1013.3
20260506204028 51 96 2.0 10.0 0.00 0.00 0.00 40 1013.4
20260506203526 50 125 3.0 10.0 0.00 0.00 0.00 35 1013.5
20260506203040 51 46 3.0 10.0 0.00 0.00 0.00 34 1013.4
20260506202527 51 38 2.0 10.0 0.00 0.00 0.00 38 1013.5
20260506202028 51 37 2.0 10.0 0.00 0.00 0.00 35 1013.5
20260506201539 51 41 4.0 10.0 0.00 0.00 0.00 35 1013.5
20260506201025 52 42 2.0 7.0 0.00 0.00 0.00 42 1013.5
20260506200524 51 252 4.0 7.0 0.00 0.00 0.00 38 1013.6
20260506200037 51 289 1.0 6.0 0.00 0.00 0.00 35 1013.8
20260506195524 51 9 3.0 10.0 0.00 0.00 0.00 35 1013.9
20260506195025 51 333 3.0 13.0 0.00 0.00 0.00 33 1014.0
20260506194546 51 26 6.0 13.0 0.00 0.00 0.00 38 1014.0
20260506194028 52 46 4.0 11.0 0.00 0.00 0.00 39 1014.0
20260506193525 51 123 2.0 8.0 0.00 0.00 0.00 36 1014.1